Location: Cisewo
(53.3833°N, 14.9000°E)
Time: 13:45:26
(UTC+00:00)

ERS-1 Rocket - Pass Details

Date: 18 April 2021
Orbit: 753 x 757 km, 98.4° (Epoch: 16 May)

Event Time Altitude Azimuth Distance (km) Brightness Sun altitude
Exits shadow 20:54:39 29° 195° (SSW) 1,355 3.9 -20.2°
Maximum altitude 20:57:00 54° 259° (W) 913 3.4 -20.4°
Drops below altitude 10° 21:01:57 10° 337° (NNW) 2,292 6.6 -20.8°
Sets 21:04:19 0° 342° (NNW) 3,221 7.7 -21.0°
